Weather History for Fort Campbell, KY

Change the Weather History Date:

Friday, January 4, 2013

  Actual Average Record
Temperature  
Mean Temperature 32 °F -  
Max Temperature 44 °F 44 °F 73 °F (1998)
Min Temperature 21 °F 29 °F 12 °F (2002)
Degree Days  
Heating Degree Days 32    
Moisture  
Dew Point 24 °F    
Average Humidity 74    
Maximum Humidity 97    
Minimum Humidity 43    
Precipitation  
Precipitation 0.00 in - - ()
Sea Level Pressure  
Sea Level Pressure 30.43 in    
Wind  
Wind Speed 3 mph (WSW)    
Max Wind Speed 13 mph    
Max Gust Speed -    
Visibility 10 miles    
Events      
Averages and records for this station are not official NWS values.
T = Trace of Precipitation, MM = Missing Value Source: NWS Daily Summary

Daily Weather History Graph

Daily Weather History Graph

Search for Another Location

Airport:

Trip Planner

Search our weather history database for the weather conditions in past years. The results will help you decide how hot, cold, wet, or windy it might be!

Date:

Astronomy

Jan. 04, 2013 Rise Set
Actual Time 7:02 AM CST 4:47 PM CST
Civil Twilight 6:34 AM CST 5:16 PM CST
Nautical Twilight 6:01 AM CST 5:48 PM CST
Astronomical Twilight 5:30 AM CST 6:19 PM CST
Moon No Moon Rise 10:57 AM CST (1/4)
Length of Visible Light 10h 42m
Length of Day
9h 44m
Waning Gibbous, 55% of the Moon is Illuminated
Jan 4
Waning Gibbous
Jan 4
Last Quarter
Jan 11
New
Jan 18
First Quarter
Jan 26
Full

Hourly Weather History & Observations

Time (CST) Temp. Windchill Dew Point Humidity Pressure Visibility Wind Dir Wind Speed Gust Speed Precip Events Conditions
12:55 AM 24.8 °F 20.5 °F 22.5 °F 91% 30.42 in 10.0 mi SSW 3.5 mph - N/A   Clear
1:55 AM 24.1 °F - 22.6 °F 94% 30.42 in 10.0 mi Calm Calm - N/A   Clear
2:55 AM 23.4 °F - 22.6 °F 97% 30.43 in 10.0 mi Calm Calm - N/A   Clear
3:55 AM 22.8 °F - 21.9 °F 96% 30.43 in 10.0 mi Calm Calm - N/A   Clear
4:55 AM 21.9 °F - 21.0 °F 96% 30.44 in 10.0 mi Calm Calm - N/A   Partly Cloudy
5:55 AM 22.6 °F - 21.0 °F 93% 30.45 in 10.0 mi Calm Calm - N/A   Overcast
6:55 AM 25.5 °F - 24.3 °F 95% 30.45 in 10.0 mi Calm Calm - N/A   Overcast
7:55 AM 24.6 °F 18.8 °F 23.0 °F 94% 30.47 in 10.0 mi SW 4.6 mph - N/A   Mostly Cloudy
8:55 AM 31.5 °F 25.8 °F 27.3 °F 85% 30.48 in 10.0 mi SW 5.8 mph - N/A   Clear
9:55 AM 37.9 °F 31.5 °F 27.9 °F 67% 30.49 in 10.0 mi SSW 9.2 mph - N/A   Clear
10:55 AM 41.4 °F 34.7 °F 24.3 °F 51% 30.47 in 10.0 mi WSW 11.5 mph - N/A   Clear
11:55 AM 42.8 °F 37.5 °F 23.7 °F 47% 30.45 in 10.0 mi WSW 9.2 mph - N/A   Clear
12:55 PM 44.2 °F 38.0 °F 23.2 °F 43% 30.42 in 10.0 mi WSW 12.7 mph - N/A   Clear
1:55 PM 43.9 °F 38.8 °F 24.6 °F 47% 30.41 in 10.0 mi NW 9.2 mph - N/A   Mostly Cloudy
2:55 PM 44.2 °F 39.2 °F 23.9 °F 45% 30.41 in 10.0 mi WNW 9.2 mph - N/A   Partly Cloudy
3:55 PM 42.8 °F 39.3 °F 23.2 °F 46% 30.41 in 10.0 mi West 5.8 mph - N/A   Clear
4:55 PM 39.2 °F 37.0 °F 23.7 °F 54% 30.42 in 10.0 mi West 3.5 mph - N/A   Clear
5:55 PM 36.0 °F - 24.1 °F 62% 30.42 in 10.0 mi Calm Calm - N/A   Clear
6:55 PM 32.7 °F - 23.2 °F 68% 30.43 in 10.0 mi Calm Calm - N/A   Clear
7:55 PM 31.6 °F - 23.9 °F 73% 30.43 in 10.0 mi Calm Calm - N/A   Clear
8:55 PM 28.6 °F 24.8 °F 22.3 °F 77% 30.42 in 10.0 mi SSW 3.5 mph - N/A   Clear
9:55 PM 29.5 °F - 22.6 °F 76% 30.42 in 10.0 mi Calm Calm - N/A   Clear
10:55 PM 29.1 °F - 24.1 °F 81% 30.41 in 10.0 mi Calm Calm - N/A   Clear
11:55 PM 27.3 °F - 23.9 °F 87% 30.40 in 10.0 mi Calm Calm - N/A   Clear